User: anonymous   Login
Location: Albany
(35.0000°S, 118.0000°E)
Time: 11:33:12
(UTC-05:00)
Language:

Radarsat Rocket - Orbit

View from above orbital plane
View from above orbital plane
View from above satellite
View from above satellite

Ground track
Ground track

The orbit data is extracted from the following two-line orbital elements,

1 23711U 95059B   15061.55766771 -.00000016  00000-0  52263-4 0  9999
2 23711 100.4785 048.0677 0368599 055.0642 047.4518 13.12662449925895
Epoch (UTC): 02 March 2015 13:23:02
Eccentricity: 0.0368599
inclination: 100.4785°
perigee height: 933 km
apogee height: 1492 km
right ascension of ascending node: 48.0677°
argument of perigee: 55.0642°
revolutions per day: 13.12662449
mean anomaly at epoch: 47.4518°
orbit number at epoch: 92589

The dashed part of the orbit path shows where the satellite is in the earth's shadow,  

DLR